Weather History for Montgomery, NY

Change the Weather History Date:

Thursday, October 25, 2012

  Actual Average (KPOU) Record (KPOU)
Temperature  
Mean Temperature 56 °F 48 °F  
Max Temperature 60 °F 60 °F 80 °F (1963)
Min Temperature 53 °F 36 °F 24 °F (1952)
Degree Days  
Heating Degree Days 8 17  
Month to date heating degree days 329  
Since 1 July heating degree days 469  
Cooling Degree Days 0 0  
Month to date cooling degree days 0  
Year to date cooling degree days 668  
Growing Degree Days 6 (Base 50)    
Moisture  
Dew Point 52 °F    
Average Humidity 89    
Maximum Humidity 94    
Minimum Humidity 77    
Precipitation  
Precipitation 0.04 in 0.13 in 1.38 in (2008)
Month to date precipitation 3.67  
Year to date precipitation 38.73  
Sea Level Pressure  
Sea Level Pressure 30.24 in    
Wind  
Wind Speed 1 mph (SSE)    
Max Wind Speed 6 mph    
Max Gust Speed -    
Visibility 6 miles    
Events Rain    
T = Trace of Precipitation, MM = Missing Value Source: NWS Daily Summary

Daily Weather History Graph

Daily Weather History Graph

Search for Another Location

Airport:

Trip Planner

Search our weather history database for the weather conditions in past years. The results will help you decide how hot, cold, wet, or windy it might be!

Date:

Astronomy

Oct. 25, 2012 Rise Set
Actual Time 7:21 AM EDT 6:00 PM EDT
Civil Twilight 6:52 AM EDT 6:28 PM EDT
Nautical Twilight 6:20 AM EDT 7:01 PM EDT
Astronomical Twilight 5:48 AM EDT 7:33 PM EDT
Moon 3:47 PM EDT (10/25) 3:12 AM EDT (10/25)
Length of Visible Light 11h 36m
Length of Day
10h 39m
Waxing Gibbous, 84% of the Moon is Illuminated
Oct 25
Waxing Gibbous
Oct 29
Full
Nov 6
Last Quarter
Nov 13
New
Nov 20
First Quarter

Hourly Weather History & Observations

Time (EDT) Temp. Dew Point Humidity Pressure Visibility Wind Dir Wind Speed Gust Speed Precip Events Conditions
12:10 AM 53.6 °F 51.8 °F 94% 30.20 in 5.0 mi North 3.5 mph - 0.00 in Rain Light Rain
12:54 AM 53.1 °F 51.1 °F 93% 30.21 in 5.0 mi Calm Calm - 0.01 in Rain Light Rain
1:17 AM 53.6 °F 51.8 °F 94% 30.21 in 4.0 mi Calm Calm - 0.02 in Rain Light Rain
1:54 AM 53.1 °F 51.1 °F 93% 30.21 in 4.0 mi Calm Calm - 0.03 in Rain Light Rain
2:23 AM 53.6 °F 51.8 °F 94% 30.21 in 4.0 mi Calm Calm - 0.00 in   Overcast
2:50 AM 53.6 °F 51.8 °F 94% 30.21 in 4.0 mi Calm Calm - 0.00 in Rain Light Rain
2:54 AM 53.1 °F 51.1 °F 93% 30.21 in 4.0 mi Calm Calm - 0.00 in Rain Light Rain
3:17 AM 53.6 °F 51.8 °F 94% 30.21 in 4.0 mi Calm Calm - 0.00 in   Overcast
3:43 AM 53.6 °F 51.8 °F 94% 30.21 in 5.0 mi Calm Calm - 0.00 in   Overcast
3:54 AM 53.1 °F 51.1 °F 93% 30.21 in 4.0 mi Calm Calm - 0.00 in   Overcast
4:54 AM 53.1 °F 51.1 °F 93% 30.21 in 4.0 mi Calm Calm - 0.00 in   Overcast
5:06 AM 53.6 °F 51.8 °F 94% 30.21 in 4.0 mi Calm Calm - N/A   Overcast
5:44 AM 53.6 °F 51.8 °F 94% 30.22 in 4.0 mi Calm Calm - N/A   Overcast
5:54 AM 53.1 °F 51.1 °F 93% 30.22 in 4.0 mi Calm Calm - N/A   Overcast
6:54 AM 53.1 °F 51.1 °F 93% 30.23 in 4.0 mi Calm Calm - N/A   Overcast
7:50 AM 53.6 °F 51.8 °F 94% 30.24 in 3.0 mi Calm Calm - N/A   Overcast
7:54 AM 53.1 °F 51.1 °F 93% 30.25 in 3.0 mi Calm Calm - N/A   Overcast
8:54 AM 54.0 °F 51.1 °F 90% 30.26 in 4.0 mi Calm Calm - N/A   Overcast
9:54 AM 55.0 °F 52.0 °F 89% 30.27 in 6.0 mi Calm Calm - N/A   Overcast
10:05 AM 55.4 °F 51.8 °F 88% 30.27 in 5.0 mi Calm Calm - N/A   Overcast
10:32 AM 55.4 °F 51.8 °F 88% 30.27 in - Calm Calm - N/A   Unknown
10:54 AM 55.0 °F 52.0 °F 89% 30.28 in 4.0 mi Calm Calm - N/A   Mist
11:03 AM 55.4 °F 51.8 °F 88% 30.28 in 5.0 mi Calm Calm - N/A   Overcast
11:49 AM 55.4 °F 53.6 °F 94% 30.27 in 6.0 mi South 3.5 mph - N/A   Overcast
11:54 AM 55.9 °F 53.1 °F 90% 30.27 in 7.0 mi SSE 3.5 mph - N/A   Overcast
12:27 PM 57.2 °F 53.6 °F 88% 30.26 in 7.0 mi Calm Calm - N/A   Overcast
12:44 PM 57.2 °F 53.6 °F 88% 30.25 in 9.0 mi Calm Calm - N/A   Overcast
12:54 PM 57.0 °F 53.1 °F 87% 30.26 in 9.0 mi Calm Calm - N/A   Overcast
1:54 PM 57.9 °F 53.1 °F 84% 30.25 in 10.0 mi Calm Calm - N/A   Overcast
2:43 PM 59.0 °F 53.6 °F 82% 30.23 in 10.0 mi South 3.5 mph - N/A   Overcast
2:54 PM 59.0 °F 53.1 °F 81% 30.23 in 10.0 mi Calm Calm - N/A   Overcast
4:15 PM 60.8 °F 53.6 °F 77% 30.23 in 10.0 mi SE 3.5 mph - N/A   Unknown
4:45 PM 60.8 °F 53.6 °F 77% 30.23 in 10.0 mi SE 3.5 mph - N/A   Overcast
4:54 PM 60.1 °F 53.1 °F 78% 30.23 in 10.0 mi SE 3.5 mph - N/A   Overcast
5:54 PM 59.0 °F 53.1 °F 81% 30.24 in 10.0 mi Calm Calm - N/A   Overcast
6:54 PM 57.9 °F 53.1 °F 84% 30.24 in 10.0 mi SE 3.5 mph - N/A   Overcast
7:54 PM 57.9 °F 53.1 °F 84% 30.25 in 10.0 mi South 3.5 mph - N/A   Overcast
8:54 PM 57.0 °F 52.0 °F 83% 30.24 in 10.0 mi SSE 3.5 mph - N/A   Overcast
9:54 PM 57.0 °F 53.1 °F 87% 30.24 in 10.0 mi South 5.8 mph - N/A   Overcast
10:54 PM 57.0 °F 52.0 °F 83% 30.23 in 10.0 mi Calm Calm - N/A   Overcast
11:54 PM 57.0 °F 52.0 °F 83% 30.23 in 10.0 mi South 3.5 mph - N/A   Overcast